This demonstration page uses our WeatherBlox Daily Observations layout. Learn more.

Left ArrowRight Arrow

41.86663, -103.66717

Hourly Observations for December 5, 2020

Temp ( °F °C ) Dew Point ( °F °C ) Humidity (%) Winds ( mph kmh ) Pressure ( in mb ) Visibility ( mi km ) Precip ( " mm )
12:53 am 00:53 Clear 32 0 13 -10.6 45 45 WNW 6 9 30.37 1028 10 16 0.00 0.00
1:53 am 01:53 Clear 33 0.6 13 -10.6 43 43 WNW 9 15 30.37 1028 10 16 0.00 0.00
2:53 am 02:53 Clear 28 -2.2 13 -10.6 53 53 NW 9 15 30.38 1029 10 16 0.00 0.00
3:53 am 03:53 Clear 26 -3.3 13 -10.6 57 57 WNW 9 15 30.40 1029 10 16 0.00 0.00
4:53 am 04:53 Clear 23 -5 12 -11.1 63 63 NW 8 13 30.44 1031 10 16 0.00 0.00
5:53 am 05:53 Clear 24 -4.4 12 -11.1 60 60 NW 6 9 30.44 1031 10 16 0.00 0.00
6:53 am 06:53 Clear 24 -4.4 12 -11.1 60 60 NW 7 11 30.48 1032 10 16 0.00 0.00
7:53 am 07:53 Sunny 26 -3.3 13 -10.6 57 57 WNW 8 13 30.50 1033 10 16 0.00 0.00
8:53 am 08:53 Sunny 34 1.1 15 -9.4 46 46 WNW 9 15 30.49 1033 10 16 0.00 0.00
9:53 am 09:53 Sunny 41 5 16 -8.9 36 36 WNW 14 22 30.47 1032 10 16 0.00 0.00
10:53 am 10:53 Sunny 47 8.3 16 -8.9 29 29 W 13 20 30.43 1030 10 16 0.00 0.00
11:53 am 11:53 Sunny 51 10.6 18 -7.8 27 27 WNW 13 20 30.35 1028 10 16 0.00 0.00
12:53 pm 12:53 Sunny 55 12.8 18 -7.8 23 23 NW 10 17 30.32 1027 10 16 0.00 0.00
1:53 pm 13:53 Sunny 57 13.9 18 -7.8 22 22 W 9 15 30.29 1026 10 16 0.00 0.00
2:53 pm 14:53 Sunny 57 13.9 17 -8.3 21 21 W 10 17 30.29 1026 10 16 0.00 0.00
3:53 pm 15:53 Sunny 53 11.7 16 -8.9 23 23 WNW 6 9 30.29 1026 8 13 0.00 0.00
4:53 pm 16:53 Clear 41 5 14 -10 33 33 N 7 11 30.34 1027 10 16 0.00 0.00
5:53 pm 17:53 Clear 35 1.7 14 -10 42 42 NE 8 13 30.35 1028 10 16 0.00 0.00
6:53 pm 18:53 Clear 35 1.7 15 -9.4 44 44 Calm 30.36 1028 10 16 0.00 0.00
7:53 pm 19:53 Clear 31 -0.6 14 -10 49 49 N 5 7 30.36 1028 10 16 0.00 0.00
8:53 pm 20:53 Clear 22 -5.6 13 -10.6 68 68 NW 5 7 30.36 1028 10 16 0.00 0.00
9:53 pm 21:53 Clear 26 -3.3 14 -10 60 60 N 10 17 30.33 1027 10 16 0.00 0.00
10:53 pm 22:53 Clear 24 -4.4 13 -10.6 62 62 NW 7 11 30.32 1027 10 16 0.00 0.00
11:53 pm 23:53 Clear 22 -5.6 11 -11.7 63 63 N 3 6 30.29 1026 10 16 0.00 0.00

Powered by AerisWeather